Time,TemperatureF,DewpointF,PressureIn,WindDirection,WindDirectionDegrees,WindSpeedMPH,WindSpeedGustMPH,Humidity,HourlyPrecipIn,Conditions,Clouds,dailyrainin,SoftwareType,DateUTC
2013-01-16 00:00:00,63.8,61.4,30.04,ESE,117,0.0,0.0,92,0.00,,,0.00,Wunderground v.1.15,2013-01-16 05:00:00,
2013-01-16 00:05:00,63.9,61.5,30.04,ESE,117,0.0,0.0,92,0.00,,,0.00,Wunderground v.1.15,2013-01-16 05:05:00,
2013-01-16 00:15:00,63.4,60.7,30.04,ESE,117,0.0,0.0,91,0.00,,,0.00,Wunderground v.1.15,2013-01-16 05:15:00,
2013-01-16 00:20:00,63.2,60.5,30.04,ESE,117,0.0,0.0,91,0.00,,,0.00,Wunderground v.1.15,2013-01-16 05:20:00,
2013-01-16 00:25:00,62.8,60.1,30.04,ESE,117,0.0,0.0,91,0.00,,,0.00,Wunderground v.1.15,2013-01-16 05:25:00,
2013-01-16 00:30:00,62.5,59.8,30.04,ESE,117,0.0,0.0,91,0.00,,,0.00,Wunderground v.1.15,2013-01-16 05:30:00,
2013-01-16 00:35:00,62.1,59.4,30.04,ESE,117,0.0,0.0,91,0.00,,,0.00,Wunderground v.1.15,2013-01-16 05:35:00,
2013-01-16 00:45:00,61.4,58.7,30.04,ESE,117,0.0,0.0,91,0.00,,,0.00,Wunderground v.1.15,2013-01-16 05:45:00,
2013-01-16 00:50:00,61.0,58.7,30.04,ESE,117,0.0,0.0,92,0.00,,,0.00,Wunderground v.1.15,2013-01-16 05:50:00,
2013-01-16 00:55:00,60.8,58.5,30.04,ESE,117,0.0,0.0,92,0.00,,,0.00,Wunderground v.1.15,2013-01-16 05:55:00,
2013-01-16 01:00:00,60.7,58.4,30.04,ESE,117,0.0,0.0,92,0.00,,,0.00,Wunderground v.1.15,2013-01-16 06:00:00,
2013-01-16 01:05:00,60.5,58.2,30.04,ESE,117,0.0,0.0,92,0.00,,,0.00,Wunderground v.1.15,2013-01-16 06:05:00,
2013-01-16 01:15:00,60.1,57.8,30.04,ESE,117,0.0,0.0,92,0.00,,,0.00,Wunderground v.1.15,2013-01-16 06:15:00,
2013-01-16 01:20:00,59.9,57.6,30.04,ESE,117,0.0,0.0,92,0.00,,,0.00,Wunderground v.1.15,2013-01-16 06:20:00,
2013-01-16 01:25:00,59.6,57.3,30.04,ESE,117,0.0,0.0,92,0.00,,,0.00,Wunderground v.1.15,2013-01-16 06:25:00,
2013-01-16 01:30:00,59.4,56.8,30.04,ESE,117,0.0,0.0,91,0.00,,,0.00,Wunderground v.1.15,2013-01-16 06:30:00,
2013-01-16 01:35:00,59.0,56.7,30.04,ESE,117,0.0,0.0,92,0.00,,,0.00,Wunderground v.1.15,2013-01-16 06:35:00,
2013-01-16 01:40:00,59.0,56.7,30.04,ESE,117,0.0,0.0,92,0.00,,,0.00,Wunderground v.1.15,2013-01-16 06:40:00,
2013-01-16 01:45:00,59.4,57.1,30.04,ESE,117,0.0,0.0,92,0.00,,,0.00,Wunderground v.1.15,2013-01-16 06:45:00,
2013-01-16 01:50:00,59.4,57.1,30.04,ESE,117,0.0,0.0,92,0.00,,,0.00,Wunderground v.1.15,2013-01-16 06:50:00,
2013-01-16 01:55:00,59.3,57.0,30.04,ESE,117,0.0,0.0,92,0.00,,,0.00,Wunderground v.1.15,2013-01-16 06:55:00,
2013-01-16 02:00:00,59.0,56.7,30.04,ESE,117,0.0,0.0,92,0.00,,,0.00,Wunderground v.1.15,2013-01-16 07:00:00,
2013-01-16 02:05:00,59.0,56.7,30.04,ESE,117,0.0,0.0,92,0.00,,,0.00,Wunderground v.1.15,2013-01-16 07:05:00,
2013-01-16 02:15:00,58.2,55.9,30.04,ESE,117,0.0,0.0,92,0.00,,,0.00,Wunderground v.1.15,2013-01-16 07:15:00,
2013-01-16 02:20:00,57.8,55.5,30.03,ESE,117,0.0,0.0,92,0.00,,,0.00,Wunderground v.1.15,2013-01-16 07:20:00,
2013-01-16 02:25:00,57.6,55.3,30.03,ESE,117,0.0,0.0,92,0.00,,,0.00,Wunderground v.1.15,2013-01-16 07:25:00,
2013-01-16 02:30:00,57.5,55.2,30.04,ESE,117,0.0,0.0,92,0.00,,,0.00,Wunderground v.1.15,2013-01-16 07:30:00,
2013-01-16 02:35:00,57.1,54.8,30.03,ESE,117,0.0,0.0,92,0.00,,,0.00,Wunderground v.1.15,2013-01-16 07:35:00,
2013-01-16 02:40:00,56.9,54.6,30.03,ESE,117,0.0,0.0,92,0.00,,,0.00,Wunderground v.1.15,2013-01-16 07:40:00,
2013-01-16 02:45:00,56.7,54.4,30.03,ESE,117,0.0,0.0,92,0.00,,,0.00,Wunderground v.1.15,2013-01-16 07:45:00,
2013-01-16 02:50:00,56.6,54.3,30.03,ESE,117,0.0,0.0,92,0.00,,,0.00,Wunderground v.1.15,2013-01-16 07:50:00,
2013-01-16 02:55:00,56.5,54.2,30.03,ESE,117,0.0,0.0,92,0.00,,,0.00,Wunderground v.1.15,2013-01-16 07:55:00,
2013-01-16 03:00:00,56.5,54.2,30.03,ESE,117,0.0,0.0,92,0.00,,,0.00,Wunderground v.1.15,2013-01-16 08:00:00,
2013-01-16 03:05:00,56.5,54.2,30.03,ESE,117,0.0,0.0,92,0.00,,,0.00,Wunderground v.1.15,2013-01-16 08:05:00,
2013-01-16 03:10:00,56.6,54.6,30.03,ESE,117,0.0,0.0,93,0.00,,,0.00,Wunderground v.1.15,2013-01-16 08:10:00,
2013-01-16 03:15:00,56.8,54.8,30.03,ESE,117,0.0,0.0,93,0.00,,,0.00,Wunderground v.1.15,2013-01-16 08:15:00,
2013-01-16 03:20:00,57.0,55.0,30.03,ESE,117,0.0,0.0,93,0.00,,,0.00,Wunderground v.1.15,2013-01-16 08:20:00,
2013-01-16 03:25:00,57.4,55.4,30.03,ESE,117,0.0,0.0,93,0.00,,,0.00,Wunderground v.1.15,2013-01-16 08:25:00,
2013-01-16 03:30:00,57.6,55.6,30.03,ESE,117,0.0,0.0,93,0.00,,,0.00,Wunderground v.1.15,2013-01-16 08:30:00,
2013-01-16 03:35:00,57.7,55.7,30.03,ESE,117,0.0,0.0,93,0.00,,,0.00,Wunderground v.1.15,2013-01-16 08:35:00,
2013-01-16 03:40:00,57.8,55.8,30.03,ESE,117,0.0,0.0,93,0.00,,,0.00,Wunderground v.1.15,2013-01-16 08:40:00,
2013-01-16 03:45:00,57.8,55.8,30.03,ESE,117,0.0,0.0,93,0.00,,,0.00,Wunderground v.1.15,2013-01-16 08:45:00,
2013-01-16 03:50:00,57.7,55.7,30.03,ESE,117,0.0,0.0,93,0.00,,,0.00,Wunderground v.1.15,2013-01-16 08:50:00,
2013-01-16 03:55:00,57.5,55.5,30.03,ESE,117,0.0,0.0,93,0.00,,,0.00,Wunderground v.1.15,2013-01-16 08:55:00,
2013-01-16 04:00:00,57.3,55.3,30.03,ESE,117,0.0,0.0,93,0.00,,,0.00,Wunderground v.1.15,2013-01-16 09:00:00,
2013-01-16 04:05:00,57.2,55.2,30.02,ESE,117,0.0,0.0,93,0.00,,,0.00,Wunderground v.1.15,2013-01-16 09:05:00,
2013-01-16 04:10:00,57.0,55.0,30.02,ESE,117,0.0,0.0,93,0.00,,,0.00,Wunderground v.1.15,2013-01-16 09:10:00,
2013-01-16 04:15:00,56.8,54.8,30.02,ESE,117,0.0,0.0,93,0.00,,,0.00,Wunderground v.1.15,2013-01-16 09:15:00,
2013-01-16 04:25:00,56.7,54.7,30.02,ESE,117,0.0,0.0,93,0.00,,,0.00,Wunderground v.1.15,2013-01-16 09:25:00,
2013-01-16 04:30:00,56.6,54.6,30.02,ESE,117,0.0,0.0,93,0.00,,,0.00,Wunderground v.1.15,2013-01-16 09:30:00,
2013-01-16 04:35:00,56.3,54.3,30.02,ESE,117,0.0,0.0,93,0.00,,,0.00,Wunderground v.1.15,2013-01-16 09:35:00,
2013-01-16 04:40:00,56.1,54.1,30.02,ESE,117,0.0,0.0,93,0.00,,,0.00,Wunderground v.1.15,2013-01-16 09:40:00,
2013-01-16 04:45:00,56.0,54.0,30.01,ESE,117,0.0,0.0,93,0.00,,,0.00,Wunderground v.1.15,2013-01-16 09:45:00,
2013-01-16 04:50:00,56.0,54.0,30.01,ESE,117,0.0,0.0,93,0.00,,,0.00,Wunderground v.1.15,2013-01-16 09:50:00,
2013-01-16 04:55:00,55.9,53.9,30.01,ESE,117,0.0,0.0,93,0.00,,,0.00,Wunderground v.1.15,2013-01-16 09:55:00,
2013-01-16 05:00:00,55.9,53.9,30.02,ESE,117,0.0,0.0,93,0.00,,,0.00,Wunderground v.1.15,2013-01-16 10:00:00,
2013-01-16 05:05:00,55.7,53.7,30.02,ESE,117,0.0,0.0,93,0.00,,,0.00,Wunderground v.1.15,2013-01-16 10:05:00,
2013-01-16 05:10:00,55.3,53.3,30.02,ESE,117,0.0,0.0,93,0.00,,,0.00,Wunderground v.1.15,2013-01-16 10:10:00,
2013-01-16 05:15:00,55.0,53.0,30.02,ESE,117,0.0,0.0,93,0.00,,,0.00,Wunderground v.1.15,2013-01-16 10:15:00,
2013-01-16 05:20:00,55.0,53.0,30.02,ESE,117,0.0,0.0,93,0.00,,,0.00,Wunderground v.1.15,2013-01-16 10:20:00,
2013-01-16 05:25:00,55.2,53.5,30.02,ESE,117,0.0,0.0,94,0.00,,,0.00,Wunderground v.1.15,2013-01-16 10:25:00,
2013-01-16 05:30:00,55.3,53.6,30.02,ESE,117,0.0,0.0,94,0.00,,,0.00,Wunderground v.1.15,2013-01-16 10:30:00,
2013-01-16 05:35:00,55.2,53.2,30.02,ESE,117,0.0,0.0,93,0.00,,,0.00,Wunderground v.1.15,2013-01-16 10:35:00,
2013-01-16 05:40:00,55.1,53.1,30.02,ESE,117,0.0,0.0,93,0.00,,,0.00,Wunderground v.1.15,2013-01-16 10:40:00,
2013-01-16 05:45:00,55.0,53.0,30.02,ESE,117,0.0,0.0,93,0.00,,,0.00,Wunderground v.1.15,2013-01-16 10:45:00,
2013-01-16 05:50:00,54.8,53.1,30.02,ESE,117,0.0,0.0,94,0.00,,,0.00,Wunderground v.1.15,2013-01-16 10:50:00,
2013-01-16 05:55:00,54.6,52.9,30.03,ESE,117,0.0,0.0,94,0.00,,,0.00,Wunderground v.1.15,2013-01-16 10:55:00,
2013-01-16 06:00:00,54.5,52.5,30.03,ESE,117,0.0,0.0,93,0.00,,,0.00,Wunderground v.1.15,2013-01-16 11:00:00,
2013-01-16 06:05:00,54.4,52.7,30.03,ESE,117,0.0,0.0,94,0.00,,,0.00,Wunderground v.1.15,2013-01-16 11:05:00,
2013-01-16 06:15:00,54.1,52.4,30.03,ESE,117,0.0,0.0,94,0.00,,,0.00,Wunderground v.1.15,2013-01-16 11:15:00,
2013-01-16 06:20:00,53.9,51.9,30.03,ESE,117,0.0,0.0,93,0.00,,,0.00,Wunderground v.1.15,2013-01-16 11:20:00,
2013-01-16 06:25:00,53.7,52.0,30.03,ESE,117,0.0,0.0,94,0.00,,,0.00,Wunderground v.1.15,2013-01-16 11:25:00,
2013-01-16 06:30:00,53.5,51.8,30.03,ESE,117,0.0,0.0,94,0.00,,,0.00,Wunderground v.1.15,2013-01-16 11:30:00,
2013-01-16 06:35:00,53.5,51.8,30.03,ESE,117,0.0,0.0,94,0.00,,,0.00,Wunderground v.1.15,2013-01-16 11:35:00,
2013-01-16 06:40:00,53.4,51.7,30.04,ESE,117,0.0,0.0,94,0.00,,,0.00,Wunderground v.1.15,2013-01-16 11:40:00,
2013-01-16 06:45:00,53.4,51.7,30.04,ESE,117,0.0,0.0,94,0.00,,,0.00,Wunderground v.1.15,2013-01-16 11:45:00,
2013-01-16 06:50:00,53.4,51.7,30.04,ESE,117,0.0,0.0,94,0.00,,,0.00,Wunderground v.1.15,2013-01-16 11:50:00,
2013-01-16 06:55:00,53.3,51.6,30.04,ESE,117,0.0,0.0,94,0.00,,,0.00,Wunderground v.1.15,2013-01-16 11:55:00,
2013-01-16 07:00:00,53.2,51.5,30.04,ESE,117,0.0,0.0,94,0.00,,,0.00,Wunderground v.1.15,2013-01-16 12:00:00,
2013-01-16 07:05:00,53.1,51.4,30.04,ESE,117,0.0,0.0,94,0.00,,,0.00,Wunderground v.1.15,2013-01-16 12:05:00,
2013-01-16 07:10:00,53.0,51.3,30.05,ESE,117,0.0,0.0,94,0.00,,,0.00,Wunderground v.1.15,2013-01-16 12:10:00,
2013-01-16 07:15:00,53.0,51.3,30.05,ESE,117,0.0,0.0,94,0.00,,,0.00,Wunderground v.1.15,2013-01-16 12:15:00,
2013-01-16 07:20:00,52.9,51.2,30.05,ESE,117,0.0,0.0,94,0.00,,,0.00,Wunderground v.1.15,2013-01-16 12:20:00,
2013-01-16 07:25:00,52.9,51.2,30.05,ESE,117,0.0,0.0,94,0.00,,,0.00,Wunderground v.1.15,2013-01-16 12:25:00,
2013-01-16 07:30:00,52.9,51.2,30.05,ESE,117,0.0,0.0,94,0.00,,,0.00,Wunderground v.1.15,2013-01-16 12:30:00,
2013-01-16 07:35:00,53.0,51.3,30.05,ESE,117,0.0,0.0,94,0.00,,,0.00,Wunderground v.1.15,2013-01-16 12:35:00,
2013-01-16 07:40:00,53.1,51.4,30.05,ESE,117,0.0,0.0,94,0.00,,,0.00,Wunderground v.1.15,2013-01-16 12:40:00,
2013-01-16 07:50:00,54.2,52.5,30.06,ESE,117,0.0,0.0,94,0.00,,,0.00,Wunderground v.1.15,2013-01-16 12:50:00,
2013-01-16 07:55:00,54.9,53.2,30.06,ESE,117,0.0,0.0,94,0.00,,,0.00,Wunderground v.1.15,2013-01-16 12:55:00,
2013-01-16 08:00:00,55.5,53.8,30.06,ESE,117,0.0,0.0,94,0.00,,,0.00,Wunderground v.1.15,2013-01-16 13:00:00,
2013-01-16 08:05:00,56.2,54.5,30.06,ESE,117,0.0,0.0,94,0.00,,,0.00,Wunderground v.1.15,2013-01-16 13:05:00,
2013-01-16 08:10:00,56.9,55.2,30.06,ESE,117,0.0,0.0,94,0.00,,,0.00,Wunderground v.1.15,2013-01-16 13:10:00,
2013-01-16 08:15:00,58.6,57.2,30.06,ESE,117,0.0,0.0,95,0.00,,,0.00,Wunderground v.1.15,2013-01-16 13:15:00,
2013-01-16 08:20:00,60.3,58.9,30.07,ESE,111,0.0,0.0,95,0.00,,,0.00,Wunderground v.1.15,2013-01-16 13:20:00,
2013-01-16 08:25:00,61.9,60.7,30.07,ESE,111,0.0,0.0,96,0.00,,,0.00,Wunderground v.1.15,2013-01-16 13:25:00,
2013-01-16 08:30:00,63.2,62.0,30.07,ESE,110,0.0,0.0,96,0.00,,,0.00,Wunderground v.1.15,2013-01-16 13:30:00,
2013-01-16 08:35:00,64.0,62.5,30.07,ESE,111,0.0,0.0,95,0.00,,,0.00,Wunderground v.1.15,2013-01-16 13:35:00,
2013-01-16 08:40:00,64.5,63.0,30.07,ESE,111,0.0,0.0,95,0.00,,,0.00,Wunderground v.1.15,2013-01-16 13:40:00,
2013-01-16 08:45:00,65.1,63.6,30.07,ESE,110,0.0,0.0,95,0.00,,,0.00,Wunderground v.1.15,2013-01-16 13:45:00,
2013-01-16 08:50:00,65.6,64.1,30.07,ESE,110,0.0,0.0,95,0.00,,,0.00,Wunderground v.1.15,2013-01-16 13:50:00,
2013-01-16 08:55:00,66.3,64.8,30.07,ESE,111,0.0,0.0,95,0.00,,,0.00,Wunderground v.1.15,2013-01-16 13:55:00,
2013-01-16 09:05:00,67.5,66.0,30.08,ESE,111,0.0,1.0,95,0.00,,,0.00,Wunderground v.1.15,2013-01-16 14:05:00,
2013-01-16 09:10:00,68.0,66.5,30.07,ESE,111,0.0,0.0,95,0.00,,,0.00,Wunderground v.1.15,2013-01-16 14:10:00,
2013-01-16 09:15:00,68.5,66.7,30.08,ESE,110,1.0,4.0,94,0.00,,,0.00,Wunderground v.1.15,2013-01-16 14:15:00,
2013-01-16 09:20:00,68.9,67.1,30.08,ESE,111,2.0,6.0,94,0.00,,,0.00,Wunderground v.1.15,2013-01-16 14:20:00,
2013-01-16 09:25:00,69.2,67.4,30.08,ESE,111,4.0,6.0,94,0.00,,,0.00,Wunderground v.1.15,2013-01-16 14:25:00,
2013-01-16 09:30:00,69.7,67.6,30.08,ESE,115,4.0,6.0,93,0.00,,,0.00,Wunderground v.1.15,2013-01-16 14:30:00,
2013-01-16 09:35:00,70.2,68.1,30.08,SE,131,4.0,6.0,93,0.00,,,0.00,Wunderground v.1.15,2013-01-16 14:35:00,
2013-01-16 09:40:00,70.5,68.1,30.08,SE,137,5.0,6.0,92,0.00,,,0.00,Wunderground v.1.15,2013-01-16 14:40:00,
2013-01-16 09:45:00,71.0,68.2,30.08,SE,145,5.0,7.0,91,0.00,,,0.00,Wunderground v.1.15,2013-01-16 14:45:00,
2013-01-16 09:50:00,71.3,67.9,30.08,SSE,154,6.0,8.0,89,0.00,,,0.00,Wunderground v.1.15,2013-01-16 14:50:00,
2013-01-16 09:55:00,71.7,68.0,30.08,SSE,155,5.0,8.0,88,0.00,,,0.00,Wunderground v.1.15,2013-01-16 14:55:00,
2013-01-16 10:00:00,72.2,68.1,30.08,SSE,155,4.0,4.0,87,0.00,,,0.00,Wunderground v.1.15,2013-01-16 15:00:00,
2013-01-16 10:05:00,72.7,68.3,30.08,SSE,160,4.0,5.0,86,0.00,,,0.00,Wunderground v.1.15,2013-01-16 15:05:00,
2013-01-16 10:15:00,73.2,67.7,30.08,SSE,164,4.0,5.0,83,0.00,,,0.00,Wunderground v.1.15,2013-01-16 15:15:00,
2013-01-16 10:20:00,73.7,67.9,30.08,SSE,164,3.0,4.0,82,0.00,,,0.00,Wunderground v.1.15,2013-01-16 15:20:00,
2013-01-16 10:25:00,74.1,68.3,30.08,SSE,164,3.0,5.0,82,0.00,,,0.00,Wunderground v.1.15,2013-01-16 15:25:00,
2013-01-16 10:30:00,74.2,67.6,30.08,SSE,165,4.0,5.0,80,0.00,,,0.00,Wunderground v.1.15,2013-01-16 15:30:00,
2013-01-16 10:35:00,74.6,67.3,30.08,South,171,4.0,5.0,78,0.00,,,0.00,Wunderground v.1.15,2013-01-16 15:35:00,
2013-01-16 10:40:00,74.8,67.1,30.07,SSE,164,5.0,5.0,77,0.00,,,0.00,Wunderground v.1.15,2013-01-16 15:40:00,
2013-01-16 10:45:00,75.1,67.0,30.07,SSE,165,6.0,7.0,76,0.00,,,0.00,Wunderground v.1.15,2013-01-16 15:45:00,
2013-01-16 10:50:00,75.5,67.0,30.07,SSE,164,5.0,5.0,75,0.00,,,0.00,Wunderground v.1.15,2013-01-16 15:50:00,
2013-01-16 10:55:00,75.7,66.8,30.07,SSE,167,5.0,5.0,74,0.00,,,0.00,Wunderground v.1.15,2013-01-16 15:55:00,
2013-01-16 11:00:00,75.9,66.6,30.06,SSE,167,4.0,4.0,73,0.00,,,0.00,Wunderground v.1.15,2013-01-16 16:00:00,
2013-01-16 11:05:00,76.2,66.9,30.06,SSE,165,5.0,6.0,73,0.00,,,0.00,Wunderground v.1.15,2013-01-16 16:05:00,
2013-01-16 11:10:00,76.5,66.4,30.06,South,190,5.0,5.0,71,0.00,,,0.00,Wunderground v.1.15,2013-01-16 16:10:00,
2013-01-16 11:15:00,76.8,65.9,30.06,SSW,194,5.0,5.0,69,0.00,,,0.00,Wunderground v.1.15,2013-01-16 16:15:00,
2013-01-16 11:20:00,77.1,66.1,30.05,SSW,206,4.0,4.0,69,0.00,,,0.00,Wunderground v.1.15,2013-01-16 16:20:00,
2013-01-16 11:25:00,77.5,66.1,30.05,South,174,5.0,5.0,68,0.00,,,0.00,Wunderground v.1.15,2013-01-16 16:25:00,
2013-01-16 11:30:00,77.8,66.0,30.05,South,184,5.0,5.0,67,0.00,,,0.00,Wunderground v.1.15,2013-01-16 16:30:00,
2013-01-16 11:35:00,78.2,66.8,30.04,South,182,4.0,5.0,68,0.00,,,0.00,Wunderground v.1.15,2013-01-16 16:35:00,
2013-01-16 11:40:00,78.4,66.1,30.04,South,169,5.0,6.0,66,0.00,,,0.00,Wunderground v.1.15,2013-01-16 16:40:00,
2013-01-16 11:50:00,78.7,66.4,30.04,South,173,5.0,5.0,66,0.00,,,0.00,Wunderground v.1.15,2013-01-16 16:50:00,
2013-01-16 11:55:00,78.8,66.0,30.03,South,185,4.0,5.0,65,0.00,,,0.00,Wunderground v.1.15,2013-01-16 16:55:00,
2013-01-16 12:00:00,79.0,66.2,30.03,South,171,4.0,5.0,65,0.00,,,0.00,Wunderground v.1.15,2013-01-16 17:00:00,
2013-01-16 12:05:00,78.7,65.9,30.03,SSE,163,5.0,5.0,65,0.00,,,0.00,Wunderground v.1.15,2013-01-16 17:05:00,
2013-01-16 12:10:00,78.7,65.5,30.03,SSE,163,5.0,5.0,64,0.00,,,0.00,Wunderground v.1.15,2013-01-16 17:10:00,
2013-01-16 12:15:00,79.1,65.9,30.03,WSW,237,4.0,5.0,64,0.00,,,0.00,Wunderground v.1.15,2013-01-16 17:15:00,
2013-01-16 12:20:00,79.5,65.8,30.03,WSW,237,3.0,3.0,63,0.00,,,0.00,Wunderground v.1.15,2013-01-16 17:20:00,
2013-01-16 12:25:00,79.9,66.2,30.02,WSW,237,2.0,3.0,63,0.00,,,0.00,Wunderground v.1.15,2013-01-16 17:25:00,
2013-01-16 12:30:00,80.5,66.3,30.02,SW,217,2.0,6.0,62,0.00,,,0.00,Wunderground v.1.15,2013-01-16 17:30:00,
2013-01-16 12:35:00,80.5,65.3,30.02,SSE,159,5.0,8.0,60,0.00,,,0.00,Wunderground v.1.15,2013-01-16 17:35:00,
2013-01-16 12:40:00,80.2,65.1,30.01,SSE,160,5.0,5.0,60,0.00,,,0.00,Wunderground v.1.15,2013-01-16 17:40:00,
2013-01-16 12:45:00,80.2,65.1,30.01,SSE,160,2.0,5.0,60,0.00,,,0.00,Wunderground v.1.15,2013-01-16 17:45:00,
2013-01-16 12:55:00,80.0,65.3,30.01,SSE,160,2.0,2.0,61,0.00,,,0.00,Wunderground v.1.15,2013-01-16 17:55:00,
2013-01-16 13:00:00,79.7,64.1,30.01,SE,141,3.0,3.0,59,0.00,,,0.00,Wunderground v.1.15,2013-01-16 18:00:00,
2013-01-16 13:05:00,78.9,63.8,30.01,SSE,159,4.0,7.0,60,0.00,,,0.00,Wunderground v.1.15,2013-01-16 18:05:00,
2013-01-16 13:10:00,78.7,64.1,30.00,SSE,160,5.0,5.0,61,0.00,,,0.00,Wunderground v.1.15,2013-01-16 18:10:00,
2013-01-16 13:15:00,79.5,64.9,30.00,SSE,150,5.0,7.0,61,0.00,,,0.00,Wunderground v.1.15,2013-01-16 18:15:00,
2013-01-16 13:20:00,80.1,64.5,30.00,SE,146,6.0,6.0,59,0.00,,,0.00,Wunderground v.1.15,2013-01-16 18:20:00,
2013-01-16 13:25:00,79.8,63.7,30.00,SE,142,6.0,6.0,58,0.00,,,0.00,Wunderground v.1.15,2013-01-16 18:25:00,
2013-01-16 13:30:00,80.1,64.0,30.00,SE,138,5.0,7.0,58,0.00,,,0.00,Wunderground v.1.15,2013-01-16 18:30:00,
2013-01-16 13:35:00,80.6,64.0,30.00,SE,142,5.0,7.0,57,0.00,,,0.00,Wunderground v.1.15,2013-01-16 18:35:00,
2013-01-16 13:40:00,80.7,63.5,30.00,SE,138,5.0,5.0,56,0.00,,,0.00,Wunderground v.1.15,2013-01-16 18:40:00,
2013-01-16 13:45:00,80.2,63.6,29.99,SE,134,4.0,5.0,57,0.00,,,0.00,Wunderground v.1.15,2013-01-16 18:45:00,
2013-01-16 13:50:00,79.2,62.7,29.99,SE,130,5.0,5.0,57,0.00,,,0.00,Wunderground v.1.15,2013-01-16 18:50:00,
2013-01-16 13:55:00,78.7,62.7,29.99,SE,130,4.0,5.0,58,0.00,,,0.00,Wunderground v.1.15,2013-01-16 18:55:00,
2013-01-16 14:00:00,78.7,63.2,29.99,SE,130,2.0,2.0,59,0.00,,,0.00,Wunderground v.1.15,2013-01-16 19:00:00,
2013-01-16 14:05:00,78.7,62.2,29.99,SE,137,2.0,3.0,57,0.00,,,0.00,Wunderground v.1.15,2013-01-16 19:05:00,
2013-01-16 14:10:00,79.3,63.2,29.99,SE,132,3.0,5.0,58,0.00,,,0.00,Wunderground v.1.15,2013-01-16 19:10:00,
2013-01-16 14:15:00,80.2,63.1,29.99,South,183,5.0,5.0,56,0.00,,,0.00,Wunderground v.1.15,2013-01-16 19:15:00,
2013-01-16 14:20:00,80.5,63.4,29.98,South,183,5.0,5.0,56,0.00,,,0.00,Wunderground v.1.15,2013-01-16 19:20:00,
2013-01-16 14:25:00,80.8,63.6,29.98,South,180,2.0,5.0,56,0.00,,,0.00,Wunderground v.1.15,2013-01-16 19:25:00,
2013-01-16 14:30:00,81.0,63.3,29.98,South,173,3.0,5.0,55,0.00,,,0.00,Wunderground v.1.15,2013-01-16 19:30:00,
2013-01-16 14:40:00,81.3,63.6,29.98,SSE,162,5.0,5.0,55,0.00,,,0.00,Wunderground v.1.15,2013-01-16 19:40:00,
2013-01-16 14:45:00,81.4,63.2,29.98,SE,141,4.0,5.0,54,0.00,,,0.00,Wunderground v.1.15,2013-01-16 19:45:00,
2013-01-16 14:50:00,81.1,62.9,29.98,SSE,153,4.0,4.0,54,0.00,,,0.00,Wunderground v.1.15,2013-01-16 19:50:00,
2013-01-16 14:55:00,81.6,63.3,29.98,South,179,4.0,4.0,54,0.00,,,0.00,Wunderground v.1.15,2013-01-16 19:55:00,
2013-01-16 15:00:00,81.8,62.5,29.98,South,180,3.0,3.0,52,0.00,,,0.00,Wunderground v.1.15,2013-01-16 20:00:00,
2013-01-16 15:05:00,81.4,62.6,29.98,South,180,3.0,3.0,53,0.00,,,0.00,Wunderground v.1.15,2013-01-16 20:05:00,
2013-01-16 15:10:00,81.1,62.3,29.98,South,180,3.0,3.0,53,0.00,,,0.00,Wunderground v.1.15,2013-01-16 20:10:00,
2013-01-16 15:15:00,81.0,62.8,29.98,South,180,3.0,3.0,54,0.00,,,0.00,Wunderground v.1.15,2013-01-16 20:15:00,
2013-01-16 15:20:00,81.0,62.3,29.98,South,180,2.0,2.0,53,0.00,,,0.00,Wunderground v.1.15,2013-01-16 20:20:00,
2013-01-16 15:25:00,80.5,62.3,29.98,South,179,2.0,2.0,54,0.00,,,0.00,Wunderground v.1.15,2013-01-16 20:25:00,
2013-01-16 15:30:00,80.3,62.7,29.98,South,178,1.0,4.0,55,0.00,,,0.00,Wunderground v.1.15,2013-01-16 20:30:00,
2013-01-16 15:35:00,80.3,62.1,29.98,South,169,3.0,9.0,54,0.00,,,0.00,Wunderground v.1.15,2013-01-16 20:35:00,
2013-01-16 15:40:00,79.9,62.3,29.98,SSE,164,5.0,5.0,55,0.00,,,0.00,Wunderground v.1.15,2013-01-16 20:40:00,
2013-01-16 15:45:00,79.8,62.7,29.98,SSE,155,5.0,5.0,56,0.00,,,0.00,Wunderground v.1.15,2013-01-16 20:45:00,
2013-01-16 15:50:00,80.1,62.5,29.98,SSE,155,4.0,4.0,55,0.00,,,0.00,Wunderground v.1.15,2013-01-16 20:50:00,
2013-01-16 15:55:00,79.6,62.0,29.98,SSE,155,4.0,4.0,55,0.00,,,0.00,Wunderground v.1.15,2013-01-16 20:55:00,
2013-01-16 16:00:00,79.3,62.7,29.98,SSE,155,2.0,2.0,57,0.00,,,0.00,Wunderground v.1.15,2013-01-16 21:00:00,
2013-01-16 16:05:00,79.5,62.4,29.98,SSE,155,1.0,2.0,56,0.00,,,0.00,Wunderground v.1.15,2013-01-16 21:05:00,
2013-01-16 16:15:00,80.2,62.6,29.98,SSE,155,3.0,4.0,55,0.00,,,0.00,Wunderground v.1.15,2013-01-16 21:15:00,
2013-01-16 16:20:00,80.3,62.1,29.98,SSE,155,3.0,3.0,54,0.00,,,0.00,Wunderground v.1.15,2013-01-16 21:20:00,
2013-01-16 16:25:00,80.3,62.7,29.98,SSE,155,3.0,3.0,55,0.00,,,0.00,Wunderground v.1.15,2013-01-16 21:25:00,
2013-01-16 16:30:00,80.1,62.0,29.98,SSE,155,2.0,2.0,54,0.00,,,0.00,Wunderground v.1.15,2013-01-16 21:30:00,
2013-01-16 16:35:00,80.0,61.9,29.98,SSE,155,2.0,3.0,54,0.00,,,0.00,Wunderground v.1.15,2013-01-16 21:35:00,
2013-01-16 16:45:00,79.9,62.3,29.99,SSE,155,4.0,7.0,55,0.00,,,0.00,Wunderground v.1.15,2013-01-16 21:45:00,
2013-01-16 16:50:00,79.5,62.4,29.99,SSE,155,5.0,5.0,56,0.00,,,0.00,Wunderground v.1.15,2013-01-16 21:50:00,
2013-01-16 16:55:00,79.3,62.2,29.99,SSE,155,4.0,5.0,56,0.00,,,0.00,Wunderground v.1.15,2013-01-16 21:55:00,
2013-01-16 17:00:00,79.2,62.1,29.99,SSE,155,3.0,3.0,56,0.00,,,0.00,Wunderground v.1.15,2013-01-16 22:00:00,
2013-01-16 17:05:00,79.0,62.0,29.98,SSE,155,3.0,5.0,56,0.00,,,0.00,Wunderground v.1.15,2013-01-16 22:05:00,
2013-01-16 17:15:00,78.5,62.0,29.99,SSE,155,1.0,3.0,57,0.00,,,0.00,Wunderground v.1.15,2013-01-16 22:15:00,
2013-01-16 17:20:00,78.1,61.6,29.99,SSE,155,0.0,0.0,57,0.00,,,0.00,Wunderground v.1.15,2013-01-16 22:20:00,
2013-01-16 17:25:00,77.7,61.7,29.99,SSE,155,0.0,0.0,58,0.00,,,0.00,Wunderground v.1.15,2013-01-16 22:25:00,
2013-01-16 17:30:00,77.3,62.3,29.99,SSE,155,0.0,0.0,60,0.00,,,0.00,Wunderground v.1.15,2013-01-16 22:30:00,
2013-01-16 17:35:00,76.6,62.1,29.99,SSE,155,0.0,0.0,61,0.00,,,0.00,Wunderground v.1.15,2013-01-16 22:35:00,
2013-01-16 17:45:00,75.3,61.8,29.99,SSE,155,0.0,0.0,63,0.00,,,0.00,Wunderground v.1.15,2013-01-16 22:45:00,
2013-01-16 17:50:00,74.6,61.2,29.99,SSE,155,0.0,0.0,63,0.00,,,0.00,Wunderground v.1.15,2013-01-16 22:50:00,
2013-01-16 17:55:00,74.0,61.5,29.99,SSE,155,0.0,0.0,65,0.00,,,0.00,Wunderground v.1.15,2013-01-16 22:55:00,
2013-01-16 18:00:00,73.4,61.3,29.99,SSE,155,0.0,0.0,66,0.00,,,0.00,Wunderground v.1.15,2013-01-16 23:00:00,
2013-01-16 18:05:00,72.7,60.7,29.99,SSE,155,0.0,0.0,66,0.00,,,0.00,Wunderground v.1.15,2013-01-16 23:05:00,
2013-01-16 18:15:00,71.3,59.8,29.99,SSE,155,0.0,0.0,67,0.00,,,0.00,Wunderground v.1.15,2013-01-16 23:15:00,
2013-01-16 18:20:00,70.7,59.6,30.00,SSE,155,0.0,0.0,68,0.00,,,0.00,Wunderground v.1.15,2013-01-16 23:20:00,
2013-01-16 18:25:00,70.1,59.9,30.00,SSE,155,0.0,0.0,70,0.00,,,0.00,Wunderground v.1.15,2013-01-16 23:25:00,
2013-01-16 18:30:00,69.6,59.8,30.00,SSE,155,0.0,0.0,71,0.00,,,0.00,Wunderground v.1.15,2013-01-16 23:30:00,
2013-01-16 18:35:00,68.9,59.9,30.00,SSE,155,0.0,0.0,73,0.00,,,0.00,Wunderground v.1.15,2013-01-16 23:35:00,
2013-01-16 18:40:00,68.3,59.7,30.00,SSE,155,0.0,0.0,74,0.00,,,0.00,Wunderground v.1.15,2013-01-16 23:40:00,
2013-01-16 18:45:00,67.6,59.4,30.00,SSE,155,0.0,0.0,75,0.00,,,0.00,Wunderground v.1.15,2013-01-16 23:45:00,
2013-01-16 18:50:00,67.0,58.8,30.00,SSE,155,0.0,0.0,75,0.00,,,0.00,Wunderground v.1.15,2013-01-16 23:50:00,
2013-01-16 18:55:00,66.5,58.3,30.00,SSE,155,0.0,0.0,75,0.00,,,0.00,Wunderground v.1.15,2013-01-16 23:55:00,
2013-01-16 19:00:00,65.9,58.1,30.00,SSE,155,0.0,0.0,76,0.00,,,0.00,Wunderground v.1.15,2013-01-17 00:00:00,
2013-01-16 19:05:00,65.0,56.9,30.00,SSE,155,0.0,0.0,75,0.00,,,0.00,Wunderground v.1.15,2013-01-17 00:05:00,
2013-01-16 19:15:00,63.4,56.1,30.00,SSE,155,0.0,0.0,77,0.00,,,0.00,Wunderground v.1.15,2013-01-17 00:15:00,
2013-01-16 19:20:00,63.0,56.0,30.00,SSE,155,0.0,0.0,78,0.00,,,0.00,Wunderground v.1.15,2013-01-17 00:20:00,
2013-01-16 19:25:00,62.7,56.1,30.00,SSE,155,0.0,0.0,79,0.00,,,0.00,Wunderground v.1.15,2013-01-17 00:25:00,
2013-01-16 19:35:00,61.9,56.0,30.01,SSE,155,0.0,0.0,81,0.00,,,0.00,Wunderground v.1.15,2013-01-17 00:35:00,
2013-01-16 19:40:00,61.9,56.3,30.01,SSE,155,0.0,0.0,82,0.00,,,0.00,Wunderground v.1.15,2013-01-17 00:40:00,
2013-01-16 19:45:00,61.7,55.8,30.01,SSE,155,0.0,0.0,81,0.00,,,0.00,Wunderground v.1.15,2013-01-17 00:45:00,
2013-01-16 19:50:00,61.7,56.1,30.01,SSE,155,0.0,0.0,82,0.00,,,0.00,Wunderground v.1.15,2013-01-17 00:50:00,
2013-01-16 19:55:00,62.0,56.8,30.01,SSE,155,0.0,0.0,83,0.00,,,0.00,Wunderground v.1.15,2013-01-17 00:55:00,
2013-01-16 20:00:00,62.2,57.3,30.01,SSE,155,0.0,0.0,84,0.00,,,0.00,Wunderground v.1.15,2013-01-17 01:00:00,
2013-01-16 20:05:00,62.1,57.2,30.01,SSE,155,0.0,0.0,84,0.00,,,0.00,Wunderground v.1.15,2013-01-17 01:05:00,
2013-01-16 20:10:00,61.9,56.7,30.01,SSE,155,0.0,0.0,83,0.00,,,0.00,Wunderground v.1.15,2013-01-17 01:10:00,
2013-01-16 20:15:00,61.8,56.9,30.01,SSE,155,0.0,0.0,84,0.00,,,0.00,Wunderground v.1.15,2013-01-17 01:15:00,
2013-01-16 20:20:00,61.7,56.8,30.01,SSE,155,0.0,0.0,84,0.00,,,0.00,Wunderground v.1.15,2013-01-17 01:20:00,
2013-01-16 20:25:00,61.4,56.5,30.01,SSE,155,0.0,0.0,84,0.00,,,0.00,Wunderground v.1.15,2013-01-17 01:25:00,
2013-01-16 20:30:00,61.2,56.3,30.01,SSE,155,0.0,0.0,84,0.00,,,0.00,Wunderground v.1.15,2013-01-17 01:30:00,
2013-01-16 20:35:00,60.9,56.0,30.01,SSE,155,0.0,0.0,84,0.00,,,0.00,Wunderground v.1.15,2013-01-17 01:35:00,
2013-01-16 20:40:00,60.4,55.5,30.01,SSE,155,0.0,0.0,84,0.00,,,0.00,Wunderground v.1.15,2013-01-17 01:40:00,
2013-01-16 20:45:00,60.0,55.2,30.02,SSE,155,0.0,0.0,84,0.00,,,0.00,Wunderground v.1.15,2013-01-17 01:45:00,
2013-01-16 20:55:00,59.5,54.7,30.01,SSE,155,0.0,0.0,84,0.00,,,0.00,Wunderground v.1.15,2013-01-17 01:55:00,
2013-01-16 21:00:00,59.4,54.6,30.01,SSE,155,0.0,0.0,84,0.00,,,0.00,Wunderground v.1.15,2013-01-17 02:00:00,
2013-01-16 21:05:00,59.3,54.8,30.01,SSE,155,0.0,0.0,85,0.00,,,0.00,Wunderground v.1.15,2013-01-17 02:05:00,
2013-01-16 21:10:00,59.3,54.8,30.01,SSE,155,0.0,0.0,85,0.00,,,0.00,Wunderground v.1.15,2013-01-17 02:10:00,
2013-01-16 21:15:00,59.3,54.8,30.01,SSE,155,0.0,0.0,85,0.00,,,0.00,Wunderground v.1.15,2013-01-17 02:15:00,
2013-01-16 21:20:00,59.3,54.8,30.01,SSE,155,0.0,0.0,85,0.00,,,0.00,Wunderground v.1.15,2013-01-17 02:20:00,
2013-01-16 21:25:00,59.0,54.5,30.01,SSE,155,0.0,0.0,85,0.00,,,0.00,Wunderground v.1.15,2013-01-17 02:25:00,
2013-01-16 21:30:00,59.0,54.8,30.01,SSE,155,0.0,0.0,86,0.00,,,0.00,Wunderground v.1.15,2013-01-17 02:30:00,
2013-01-16 21:35:00,59.0,54.8,30.01,SSE,155,0.0,0.0,86,0.00,,,0.00,Wunderground v.1.15,2013-01-17 02:35:00,
2013-01-16 21:40:00,58.7,54.5,30.01,SSE,155,0.0,0.0,86,0.00,,,0.00,Wunderground v.1.15,2013-01-17 02:40:00,
2013-01-16 21:45:00,58.7,54.5,30.01,SSE,155,0.0,0.0,86,0.00,,,0.00,Wunderground v.1.15,2013-01-17 02:45:00,
2013-01-16 21:50:00,58.7,55.2,30.01,SSE,155,0.0,0.0,88,0.00,,,0.00,Wunderground v.1.15,2013-01-17 02:50:00,
2013-01-16 21:55:00,59.0,55.4,30.01,SSE,155,0.0,0.0,88,0.00,,,0.00,Wunderground v.1.15,2013-01-17 02:55:00,
2013-01-16 22:00:00,59.3,55.7,30.01,SSE,155,0.0,0.0,88,0.00,,,0.00,Wunderground v.1.15,2013-01-17 03:00:00,
2013-01-16 22:05:00,59.3,55.7,30.01,SSE,155,0.0,0.0,88,0.00,,,0.00,Wunderground v.1.15,2013-01-17 03:05:00,
2013-01-16 22:15:00,59.0,55.4,30.01,SSE,155,0.0,0.0,88,0.00,,,0.00,Wunderground v.1.15,2013-01-17 03:15:00,
2013-01-16 22:20:00,58.8,55.3,30.01,SSE,155,0.0,0.0,88,0.00,,,0.00,Wunderground v.1.15,2013-01-17 03:20:00,
2013-01-16 22:25:00,58.6,55.4,30.01,SSE,155,0.0,0.0,89,0.00,,,0.00,Wunderground v.1.15,2013-01-17 03:25:00,
2013-01-16 22:30:00,58.4,55.2,30.01,SSE,155,0.0,0.0,89,0.00,,,0.00,Wunderground v.1.15,2013-01-17 03:30:00,
2013-01-16 22:35:00,58.3,55.1,30.01,SSE,155,0.0,0.0,89,0.00,,,0.00,Wunderground v.1.15,2013-01-17 03:35:00,
2013-01-16 22:40:00,58.1,54.9,30.01,SSE,155,0.0,0.0,89,0.00,,,0.00,Wunderground v.1.15,2013-01-17 03:40:00,
2013-01-16 22:50:00,58.5,55.6,30.01,SSE,155,0.0,0.0,90,0.00,,,0.00,Wunderground v.1.15,2013-01-17 03:50:00,
2013-01-16 22:55:00,58.6,55.7,30.01,SSE,155,0.0,0.0,90,0.00,,,0.00,Wunderground v.1.15,2013-01-17 03:55:00,
2013-01-16 23:00:00,58.7,55.8,30.01,SSE,155,0.0,0.0,90,0.00,,,0.00,Wunderground v.1.15,2013-01-17 04:00:00,
2013-01-16 23:05:00,58.6,55.7,30.01,SSE,155,0.0,0.0,90,0.00,,,0.00,Wunderground v.1.15,2013-01-17 04:05:00,
2013-01-16 23:15:00,58.3,55.4,30.00,SSE,155,0.0,0.0,90,0.00,,,0.00,Wunderground v.1.15,2013-01-17 04:15:00,
2013-01-16 23:20:00,58.2,55.3,30.00,SSE,155,0.0,0.0,90,0.00,,,0.00,Wunderground v.1.15,2013-01-17 04:20:00,
2013-01-16 23:25:00,58.1,55.2,30.00,SSE,155,0.0,0.0,90,0.00,,,0.00,Wunderground v.1.15,2013-01-17 04:25:00,
2013-01-16 23:30:00,57.8,54.9,30.00,SSE,155,0.0,0.0,90,0.00,,,0.00,Wunderground v.1.15,2013-01-17 04:30:00,
2013-01-16 23:35:00,57.5,55.2,30.00,SSE,155,0.0,0.0,92,0.00,,,0.00,Wunderground v.1.15,2013-01-17 04:35:00,
2013-01-16 23:40:00,57.3,54.1,30.00,SSE,155,0.0,0.0,89,0.00,,,0.00,Wunderground v.1.15,2013-01-17 04:40:00,
2013-01-16 23:45:00,57.1,54.2,30.00,SSE,155,0.0,0.0,90,0.00,,,0.00,Wunderground v.1.15,2013-01-17 04:45:00,
2013-01-16 23:50:00,56.8,54.5,30.00,SSE,155,0.0,0.0,92,0.00,,,0.00,Wunderground v.1.15,2013-01-17 04:50:00,
2013-01-16 23:55:00,56.5,53.3,30.00,SSE,155,0.0,0.0,89,0.00,,,0.00,Wunderground v.1.15,2013-01-17 04:55:00,